#timestamp,LO_Frequency,Hit,StdDev 
1620698415.1,286047005.7,Y
1620698435.9,286047001.8,P
1620698455.7,286047003.0,P
1620698475.6,286047003.2,P
1620698495.4,286047004.3,Y
1620698515.2,286047001.0,P
1620698535.1,286047002.2,N
1620698536.0,286047002.2,P
1620698555.8,286047003.1,Y
1620698575.7,286047002.1,P
1620698595.5,286047000.0,N
1620698615.3,286047000.0,N
1620698635.2,286047002.6,N
1620698655.0,286047002.1,N
1620698655.9,286047002.1,N
1620698675.8,286047001.3,N
1620698695.6,286046999.8,N
1620698715.4,286046997.3,N
1620698735.3,286046997.6,N
1620698755.1,286046996.8,N
1620698775.8,286046997.2,N
1620698795.7,286046999.0,N
1620698815.5,286046999.3,N
1620698835.4,286046999.9,N
1620698855.2,286047000.2,N
1620698875.0,286047000.5,N
1620698875.9,286047000.5,N
1620698895.8,286047002.0,N
1620698915.6,286047003.9,N
1620698935.5,286047004.4,N
1620698955.3,286047004.1,N
1620698975.1,286047005.7,N
1620698995.9,286047001.8,N
1620699015.7,286047002.0,N
1620699035.5,286047002.6,N
1620699055.4,286047001.5,N
1620699075.2,286047002.0,N
1620699095.1,286047001.9,N
1620699096.0,286047001.9,N
1620699115.8,286047000.3,N
1620699135.6,286047002.3,N
1620699155.5,286047001.9,N
1620699175.3,286047003.7,N
1620699195.1,286047001.9,N
1620699215.9,286047003.6,N
1620699235.7,286047004.4,N
1620699255.6,286047001.9,N
1620699275.4,286047003.7,N
1620699295.2,286047004.3,N
1620699315.1,286047004.3,N
1620699316.0,286047004.3,N
1620699335.8,286047003.7,N
1620699355.6,286047005.0,Y
1620699375.5,286047006.0,P
1620699395.3,286047002.7,N
1620699415.2,286047004.4,N
1620699435.9,286047000.2,N
1620699455.7,286046999.8,N
1620699475.6,286047001.6,N
1620699495.4,286047004.4,N
1620699515.2,286047003.2,N
1620699535.1,286047005.9,Y
1620699536.0,286047005.9,P
1620699555.8,286047002.4,N
1620699575.7,286047003.8,N
1620699595.5,286047003.6,N
1620699615.3,286047003.2,N
1620699635.2,286047005.5,Y
1620699655.0,286046998.6,P
1620699655.9,286046998.6,N
1620699675.8,286047000.2,N
1620699695.6,286046998.1,N
1620699715.4,286046997.0,N
1620699735.3,286046995.2,N
1620699755.1,286046996.7,N
1620699775.9,286046999.1,N
1620699795.7,286047000.6,N
1620699815.5,286047001.1,N
1620699835.4,286046999.0,N
1620699855.2,286047000.7,N
1620699875.0,286046997.1,N
1620699875.9,286046997.1,N
1620699895.8,286046997.1,N
1620699915.6,286046998.9,N
1620699935.5,286046999.1,N
1620699955.3,286046999.2,N
1620699975.1,286046997.3,N
1620699995.9,286046995.6,N
1620700015.7,286046995.4,N
1620700035.5,286046995.0,N
1620700055.4,286046995.3,N
1620700075.2,286046993.5,Y
1620700095.1,286046997.4,P
1620700096.0,286046997.4,P
1620700115.8,286046999.4,N
1620700135.6,286046998.7,N
1620700155.5,286046998.1,N
1620700175.3,286046996.5,Y
1620700195.2,286047000.2,P
1620700215.9,286047000.3,N
1620700235.7,286047002.2,N
1620700255.6,286047004.3,Y
1620700275.4,286047003.9,P
1620700295.2,286047003.7,N
1620700315.1,286047004.4,N
1620700316.0,286047004.4,N
1620700335.8,286047003.1,N
1620700355.7,286047003.5,N
1620700375.5,286047005.7,Y
1620700395.3,286047011.9,P
1620700415.2,286047000.4,N
1620700435.0,286046998.3,N
1620700435.9,286046998.3,N
1620700455.8,286047000.6,N
1620700475.6,286046999.1,N
1620700495.4,286046999.1,N
1620700515.3,286046999.4,N
1620700535.1,286046999.2,N
1620700555.8,286046996.5,N
1620700575.7,286047001.2,N
1620700595.5,286047000.4,N
1620700615.4,286047000.9,N
1620700635.2,286047000.1,N
1620700655.0,286047000.9,N
1620700655.9,286047000.9,N
1620700675.8,286047002.7,N
1620700695.6,286047001.3,N
1620700715.5,286047004.1,N
1620700735.3,286047003.3,N
1620700755.1,286047003.0,N
1620700775.9,286047003.3,N
1620700795.7,286047005.3,N
1620700815.5,286047005.9,N
1620700835.4,286047004.8,N
1620700855.2,286047007.4,N
1620700875.1,286047009.2,N
1620700876.0,286047009.2,N
1620700895.8,286047008.5,N
1620700915.6,286047004.9,N
1620700935.5,286047005.7,N
1620700955.3,286047004.5,N
1620700975.2,286047006.0,N
1620700995.9,286047003.3,N
1620701015.7,286047005.6,N
1620701035.6,286047005.6,N
1620701055.4,286047003.4,N
1620701075.2,286047005.4,N
1620701095.1,286047003.2,N
1620701096.0,286047003.2,N
1620701115.8,286047004.7,N
1620701135.7,286047005.1,N
1620701155.5,286047006.4,N
1620701175.3,286047005.0,N
1620701195.2,286047006.9,Y
1620701215.0,286047002.0,P
1620701215.9,286047002.0,N
1620701235.7,286047002.2,N
1620701255.6,286047000.4,N
1620701275.4,286047000.6,N
1620701295.3,286047000.4,N
1620701315.1,286047002.3,N
1620701316.0,286047002.3,N
1620701335.8,286047002.2,N
1620701355.7,286047001.6,N
1620701375.5,286047004.3,Y
1620701395.4,286046999.8,P
1620701415.2,286047002.2,N
1620701435.0,286047004.0,P
1620701435.9,286047004.0,N
1620701455.8,286047002.8,N
1620701475.6,286047002.3,N
1620701495.4,286047002.2,N
1620701515.3,286047003.6,N
1620701535.1,286047005.0,Y
1620701555.9,286047001.8,P
1620701575.7,286047003.8,P
1620701595.5,286047003.9,P
1620701615.4,286047003.5,Y
1620701635.2,286047000.1,P
1620701655.0,286047000.9,N
1620701655.9,286047000.9,N
1620701675.8,286047000.5,N
1620701695.6,286047001.2,N
1620701715.5,286046998.4,N
1620701735.3,286047000.4,N
1620701755.1,286047000.4,N
1620701775.9,286047002.8,N
1620701795.7,286046999.7,N
1620701815.5,286047000.1,N
1620701835.4,286046998.3,N
1620701855.2,286046998.6,N
1620701875.1,286046999.0,N
1620701876.0,286046999.0,N
1620701895.8,286046996.6,N
1620701915.6,286046996.5,N
1620701935.5,286046997.3,N
1620701955.3,286046999.0,N
1620701975.1,286046999.4,N
1620701995.9,286047000.3,N
